Kezdőlap
METAR-TAF:

METAR-TAF

Repülőterek :

Tucson, Arizona, Amerikai Egyesült Államok

földrajzi szélesség: 32-08-32N, földrajzi hosszúság: 111-10-28W, magasság: 737 m

Jelenlegi meteorológiai megfigyelések

A jelentés 5 perccel ezelõtt készült, 12:45 UTC
Keleti szél 7 kt
Hőmérséklet 23°C
Páratartalom 22%
Légköri nyomás 1006 hPa
Látótávolság: 16.1 km
Derült ég

METAR: KRYN 181245Z 10007KT 10SM CLR 23/00 A2971

Idő: 05:50 (12:50 UTC)


TAF: hiányzik

Meteorológiai megfigyelések és előrejelzések több, mint 4000 repülőtéren (METAR és TAF jelentéseket).

A térképen piros és sárga pontok jelzik az elérhető meteorológiai állomásokat.

Mozgassa az egeret a pont fölött, hogy megjelenjen az állomás neve.

Azután kattintson az időjárási megfigyelések és előrejelzések megtekintéséhez.

A térkép megváltoztatása: kattintson a fekete keresztel jelölt zöld gombra ráközelítéshez, a vonallal jelölt zöld gombra távolításhoz, vagy a zöld nyilakra a szomszédos térképek eléréséhez.


METAR-TAF: